QPF
0.01 0.00 0.01 0.02 0.08 0.12 0.06 0.03 0.02 0.02 0.02 0.02 0.04 0.05 0.05 0.05 0.04 0.05 0.07 0.09 0.06 0.04 0.03 0.02 0.01 0.02 0.01 0.01 0.02 0.02 0.03 0.03 0.02 0.03 0.06 0.06 0.08 0.11 0.11 0.08 0.06 0.04 0.04
0.01 0.01 0.02 0.01 0.01 0.01 0.01 0.01 0.01 0.01 0.01 0.01 0.03 0.04 0.04 0.05 0.05 0.05 0.08 0.16 0.11 0.07 0.06 0.06 0.05 0.04 0.02 0.02 0.01 0.02 0.04 0.03 0.03 0.02 0.03 0.04 0.07 0.08 0.08 0.08 0.07 0.06 0.06
0.01 0.01 0.01 0.01 0.00 0.00 0.00 0.00 0.02 0.04 0.04 0.02 0.02 0.02 0.03 0.04 0.04 0.04 0.08 0.19 0.14 0.05 0.03 0.02 0.04 0.05 0.03 0.01 0.01 0.01 0.02 0.03 0.04 0.04 0.04 0.05 0.06 0.05 0.06 0.07 0.06 0.08 0.08
0.02 0.01 0.02 0.01 0.01 0.00 0.01 0.02 0.03 0.07 0.09 0.04 0.01 0.01 0.01 0.02 0.02 0.03 0.06 0.13 0.12 0.07 0.03 0.03 0.03 0.04 0.03 0.03 0.03 0.03 0.03 0.02 0.02 0.03 0.04 0.05 0.05 0.04 0.05 0.04 0.04 0.03 0.05
0.02 0.01 0.01 0.01 0.01 0.01 0.02 0.03 0.05 0.08 0.08 0.04 0.02 0.02 0.02 0.03 0.04 0.03 0.04 0.05 0.07 0.07 0.04 0.03 0.03 0.05 0.05 0.04 0.03 0.03 0.03 0.02 0.02 0.03 0.03 0.03 0.03 0.03 0.03 0.03 0.03 0.03 0.04
0.02 0.01 0.01 0.01 0.01 0.02 0.03 0.05 0.06 0.06 0.06 0.04 0.03 0.04 0.04 0.04 0.03 0.03 0.03 0.03 0.03 0.03 0.03 0.03 0.03 0.03 0.03 0.04 0.03 0.03 0.02 0.02 0.02 0.02 0.04 0.04 0.03 0.03 0.03 0.03 0.04 0.03 0.04
0.01 0.01 0.01 0.01 0.01 0.01 0.03 0.04 0.06 0.06 0.05 0.05 0.04 0.04 0.04 0.04 0.03 0.02 0.02 0.01 0.01 0.01 0.01 0.01 0.02 0.02 0.01 0.01 0.02 0.03 0.03 0.02 0.02 0.02 0.02 0.03 0.03 0.03 0.03 0.02 0.02 0.02 0.02
0.02 0.01 0.01 0.01 0.01 0.01 0.02 0.05 0.07 0.06 0.06 0.07 0.06 0.05 0.04 0.03 0.02 0.01 0.01 0.01 0.00 0.01 0.01 0.02 0.01 0.02 0.01 0.01 0.01 0.01 0.02 0.03 0.03 0.02 0.02 0.02 0.01 0.02 0.02 0.02 0.02 0.02 0.02
0.01 0.01 0.01 0.01 0.01 0.01 0.02 0.03 0.06 0.07 0.10 0.09 0.05 0.04 0.03 0.03 0.03 0.02 0.01 0.01 0.01 0.01 0.01 0.01 0.01 0.01 0.01 0.01 0.01 0.01 0.01 0.01 0.02 0.03 0.03 0.02 0.02 0.01 0.02 0.03 0.03 0.03 0.02
0.02 0.01 0.01 0.01 0.01 0.01 0.01 0.03 0.06 0.08 0.09 0.07 0.03 0.03 0.03 0.04 0.04 0.03 0.02 0.02 0.01 0.01 0.01 0.01 0.01 0.02 0.02 0.01 0.01 0.01 0.01 0.01 0.01 0.01 0.01 0.02 0.02 0.02 0.02 0.03 0.03 0.04 0.04
0.02 0.01 0.01 0.01 0.01 0.01 0.01 0.02 0.06 0.09 0.04 0.04 0.03 0.03 0.04 0.06 0.04 0.04 0.04 0.04 0.05 0.05 0.04 0.03 0.02 0.02 0.02 0.02 0.01 0.01 0.01 0.01 0.01 0.01 0.01 0.01 0.01 0.01 0.01 0.02 0.03 0.03 0.04
0.03 0.03 0.02 0.02 0.01 0.02 0.02 0.02 0.03 0.05 0.05 0.05 0.06 0.07 0.06 0.07 0.07 0.07 0.07 0.08 0.09 0.08 0.06 0.04 0.03 0.03 0.03 0.02 0.02 0.01 0.01 0.01 0.01 0.01 0.01 0.02 0.02 0.01 0.01 0.02 0.02 0.02 0.03
0.02 0.02 0.02 0.02 0.02 0.03 0.04 0.04 0.05 0.06 0.04 0.04 0.06 0.06 0.05 0.04 0.05 0.05 0.05 0.07 0.07 0.06 0.05 0.04 0.03 0.03 0.03 0.03 0.02 0.01 0.01 0.01 0.01 0.02 0.02 0.02 0.03 0.03 0.03 0.03 0.03 0.03 0.03
0.01 0.01 0.01 0.01 0.02 0.02 0.03 0.04 0.05 0.05 0.03 0.03 0.03 0.02 0.03 0.03 0.04 0.05 0.07 0.09 0.09 0.08 0.06 0.06 0.05 0.04 0.04 0.03 0.01 0.01 0.01 0.01 0.01 0.03 0.03 0.03 0.02 0.02 0.03 0.03 0.03 0.04 0.04
0.01 0.01 0.01 0.01 0.01 0.02 0.02 0.02 0.02 0.02 0.02 0.02 0.02 0.03 0.02 0.03 0.05 0.06 0.07 0.09 0.10 0.10 0.07 0.07 0.07 0.06 0.05 0.04 0.02 0.01 0.01 0.01 0.03 0.04 0.03 0.02 0.02 0.02 0.03 0.01 0.01 0.01 0.01
0.01 0.01 0.01 0.01 0.01 0.02 0.02 0.02 0.02 0.02 0.02 0.02 0.02 0.02 0.03 0.04 0.05 0.06 0.08 0.08 0.07 0.08 0.09 0.09 0.08 0.06 0.04 0.04 0.04 0.03 0.03 0.02 0.02 0.03 0.03 0.02 0.01 0.01 0.02 0.03 0.03 0.02 0.01
0.01 0.01 0.01 0.01 0.01 0.02 0.02 0.01 0.02 0.02 0.02 0.02 0.03 0.03 0.04 0.05 0.06 0.07 0.08 0.10 0.12 0.16 0.16 0.13 0.10 0.08 0.08 0.09 0.07 0.05 0.02 0.01 0.01 0.02 0.02 0.02 0.02 0.03 0.04 0.05 0.05 0.04 0.03
0.01 0.01 0.01 0.01 0.01 0.01 0.01 0.01 0.02 0.02 0.02 0.02 0.02 0.03 0.04 0.06 0.08 0.08 0.09 0.11 0.13 0.13 0.12 0.11 0.11 0.11 0.10 0.11 0.07 0.03 0.01 0.01 0.01 0.01 0.01 0.02 0.03 0.05 0.06 0.07 0.09 0.07 0.04
0.01 0.01 0.01 0.02 0.02 0.02 0.02 0.02 0.02 0.01 0.01 0.01 0.02 0.03 0.04 0.06 0.08 0.09 0.07 0.06 0.04 0.04 0.04 0.03 0.03 0.03 0.03 0.04 0.03 0.03 0.02 0.01 0.01 0.01 0.02 0.02 0.03 0.04 0.06 0.05 0.05 0.05 0.04
0.03 0.02 0.02 0.02 0.03 0.03 0.02 0.02 0.01 0.01 0.01 0.01 0.02 0.03 0.04 0.04 0.03 0.03 0.03 0.01 0.01 0.02 0.03 0.03 0.02 0.02 0.02 0.03 0.02 0.02 0.02 0.02 0.02 0.03 0.03 0.03 0.03 0.04 0.04 0.04 0.04 0.03 0.03
0.08 0.07 0.04 0.03 0.03 0.02 0.02 0.02 0.02 0.02 0.02 0.03 0.03 0.04 0.05 0.04 0.03 0.02 0.02 0.01 0.01 0.01 0.01 0.02 0.02 0.02 0.02 0.02 0.01 0.01 0.01 0.01 0.02 0.02 0.03 0.04 0.04 0.05 0.05 0.05 0.05 0.04 0.05
0.11 0.12 0.08 0.05 0.03 0.02 0.02 0.04 0.04 0.05 0.05 0.05 0.05 0.04 0.03 0.02 0.02 0.01 0.01 0.02 0.02 0.02 0.01 0.01 0.02 0.01 0.01 0.02 0.02 0.02 0.02 0.02 0.01 0.02 0.02 0.02 0.02 0.03 0.03 0.04 0.04 0.06 0.05
0.05 0.08 0.10 0.08 0.07 0.05 0.05 0.06 0.07 0.08 0.08 0.07 0.05 0.03 0.02 0.01 0.01 0.01 0.01 0.02 0.02 0.02 0.01 0.02 0.02 0.02 0.02 0.02 0.02 0.01 0.01 0.01 0.01 0.01 0.01 0.01 0.02 0.02 0.02 0.02 0.03 0.03 0.03
0.02 0.02 0.04 0.07 0.06 0.06 0.06 0.06 0.07 0.07 0.05 0.04 0.03 0.02 0.01 0.01 0.01 0.02 0.02 0.02 0.02 0.02 0.03 0.03 0.03 0.02 0.02 0.02 0.01 0.01 0.01 0.01 0.01 0.01 0.01 0.01 0.02 0.02 0.02 0.03 0.03 0.03 0.03
0.02 0.02 0.03 0.04 0.04 0.05 0.07 0.06 0.05 0.03 0.03 0.02 0.02 0.02 0.02 0.02 0.02 0.01 0.02 0.02 0.03 0.03 0.03 0.04 0.03 0.02 0.02 0.01 0.01 0.01 0.01 0.02 0.02 0.02 0.02 0.02 0.02 0.02 0.02 0.02 0.02 0.03 0.03
0.03 0.03 0.03 0.03 0.03 0.04 0.06 0.04 0.02 0.01 0.01 0.01 0.01 0.02 0.02 0.03 0.04 0.02 0.03 0.03 0.03 0.03 0.03 0.03 0.03 0.02 0.02 0.02 0.01 0.01 0.02 0.03 0.04 0.04 0.03 0.03 0.02 0.02 0.02 0.02 0.02 0.02 0.02
MSLP
1014.96 1015.12 1015.13 1014.97 1014.61 1014.09 1013.47 1012.83 1012.22 1011.71 1011.32 1011.04 1010.83 1010.66 1010.47 1010.22 1009.91 1009.54 1009.13 1008.72 1008.35 1008.05 1007.84 1007.71 1007.66 1007.66 1007.68 1007.73 1007.78 1007.84 1007.90 1007.99 1008.10 1008.23 1008.36 1008.48 1008.57 1008.63 1008.66 1008.67 1008.68 1008.72 1008.80
1015.23 1015.46 1015.53 1015.41 1015.09 1014.59 1013.98 1013.34 1012.75 1012.26 1011.90 1011.66 1011.48 1011.33 1011.15 1010.90 1010.56 1010.16 1009.72 1009.28 1008.89 1008.57 1008.35 1008.21 1008.14 1008.11 1008.09 1008.08 1008.06 1008.05 1008.06 1008.11 1008.20 1008.33 1008.49 1008.66 1008.82 1008.94 1009.01 1009.04 1009.06 1009.07 1009.11
1015.38 1015.64 1015.77 1015.70 1015.43 1014.98 1014.42 1013.84 1013.30 1012.87 1012.56 1012.38 1012.25 1012.14 1011.97 1011.72 1011.38 1010.94 1010.47 1009.99 1009.57 1009.22 1008.96 1008.79 1008.68 1008.60 1008.54 1008.46 1008.37 1008.30 1008.25 1008.26 1008.33 1008.47 1008.65 1008.86 1009.06 1009.22 1009.33 1009.38 1009.38 1009.36 1009.34
1015.41 1015.70 1015.87 1015.87 1015.66 1015.28 1014.79 1014.28 1013.82 1013.48 1013.25 1013.14 1013.07 1013.01 1012.88 1012.66 1012.31 1011.87 1011.38 1010.88 1010.43 1010.04 1009.75 1009.54 1009.38 1009.25 1009.12 1008.98 1008.83 1008.69 1008.59 1008.56 1008.61 1008.73 1008.92 1009.14 1009.36 1009.53 1009.64 1009.68 1009.66 1009.59 1009.51
1015.37 1015.67 1015.88 1015.93 1015.80 1015.49 1015.09 1014.66 1014.30 1014.03 1013.89 1013.84 1013.85 1013.85 1013.77 1013.58 1013.27 1012.85 1012.37 1011.87 1011.40 1011.01 1010.69 1010.44 1010.25 1010.06 1009.88 1009.68 1009.47 1009.28 1009.12 1009.05 1009.06 1009.15 1009.31 1009.51 1009.70 1009.86 1009.94 1009.95 1009.89 1009.78 1009.65
1015.29 1015.60 1015.85 1015.95 1015.88 1015.65 1015.33 1014.98 1014.68 1014.49 1014.40 1014.42 1014.48 1014.53 1014.50 1014.37 1014.10 1013.73 1013.29 1012.82 1012.38 1011.99 1011.67 1011.41 1011.18 1010.97 1010.74 1010.50 1010.25 1010.01 1009.81 1009.69 1009.65 1009.69 1009.80 1009.95 1010.09 1010.20 1010.24 1010.20 1010.09 1009.94 1009.78
1015.22 1015.53 1015.80 1015.94 1015.92 1015.76 1015.49 1015.20 1014.95 1014.79 1014.74 1014.79 1014.88 1014.96 1014.98 1014.89 1014.68 1014.38 1014.00 1013.60 1013.20 1012.86 1012.56 1012.30 1012.08 1011.85 1011.61 1011.34 1011.06 1010.80 1010.56 1010.39 1010.30 1010.29 1010.34 1010.41 1010.49 1010.53 1010.52 1010.44 1010.30 1010.12 1009.94
1015.14 1015.46 1015.75 1015.92 1015.94 1015.82 1015.59 1015.33 1015.10 1014.94 1014.90 1014.93 1015.02 1015.11 1015.14 1015.10 1014.95 1014.71 1014.41 1014.08 1013.76 1013.48 1013.22 1013.00 1012.80 1012.58 1012.34 1012.08 1011.80 1011.52 1011.27 1011.07 1010.94 1010.87 1010.86 1010.87 1010.88 1010.86 1010.80 1010.69 1010.53 1010.36 1010.17
1015.06 1015.39 1015.69 1015.88 1015.92 1015.82 1015.61 1015.36 1015.12 1014.96 1014.87 1014.88 1014.94 1015.00 1015.04 1015.02 1014.92 1014.74 1014.52 1014.27 1014.02 1013.80 1013.62 1013.44 1013.27 1013.08 1012.88 1012.64 1012.38 1012.11 1011.86 1011.66 1011.50 1011.40 1011.34 1011.30 1011.26 1011.20 1011.10 1010.98 1010.83 1010.67 1010.50
1014.96 1015.29 1015.59 1015.79 1015.84 1015.75 1015.55 1015.30 1015.05 1014.86 1014.74 1014.70 1014.72 1014.75 1014.77 1014.75 1014.67 1014.54 1014.38 1014.20 1014.03 1013.88 1013.74 1013.62 1013.50 1013.36 1013.18 1012.98 1012.76 1012.52 1012.30 1012.11 1011.96 1011.84 1011.76 1011.69 1011.62 1011.55 1011.45 1011.33 1011.20 1011.07 1010.94
1014.84 1015.16 1015.44 1015.63 1015.68 1015.60 1015.41 1015.17 1014.92 1014.72 1014.57 1014.49 1014.46 1014.46 1014.45 1014.42 1014.34 1014.24 1014.12 1013.99 1013.87 1013.77 1013.69 1013.61 1013.53 1013.43 1013.30 1013.15 1012.97 1012.78 1012.60 1012.45 1012.32 1012.22 1012.14 1012.07 1012.00 1011.93 1011.84 1011.74 1011.64 1011.55 1011.46
1014.68 1014.98 1015.25 1015.41 1015.46 1015.38 1015.21 1015.00 1014.76 1014.57 1014.42 1014.33 1014.27 1014.23 1014.20 1014.14 1014.06 1013.96 1013.86 1013.75 1013.66 1013.60 1013.54 1013.50 1013.45 1013.38 1013.30 1013.18 1013.06 1012.92 1012.80 1012.69 1012.60 1012.53 1012.48 1012.43 1012.38 1012.32 1012.25 1012.18 1012.12 1012.06 1012.00
1014.53 1014.79 1015.01 1015.14 1015.17 1015.11 1014.97 1014.79 1014.61 1014.45 1014.33 1014.24 1014.17 1014.12 1014.05 1013.97 1013.88 1013.76 1013.65 1013.55 1013.47 1013.41 1013.37 1013.34 1013.31 1013.27 1013.21 1013.14 1013.05 1012.97 1012.89 1012.84 1012.79 1012.77 1012.75 1012.73 1012.71 1012.67 1012.63 1012.58 1012.54 1012.51 1012.48
1014.40 1014.61 1014.76 1014.85 1014.86 1014.80 1014.70 1014.58 1014.46 1014.36 1014.28 1014.22 1014.16 1014.09 1014.01 1013.90 1013.77 1013.64 1013.50 1013.39 1013.30 1013.23 1013.19 1013.16 1013.13 1013.10 1013.06 1013.01 1012.96 1012.92 1012.88 1012.87 1012.88 1012.89 1012.91 1012.92 1012.92 1012.92 1012.89 1012.87 1012.84 1012.82 1012.80
1014.32 1014.45 1014.53 1014.56 1014.54 1014.49 1014.42 1014.36 1014.30 1014.26 1014.24 1014.21 1014.16 1014.09 1013.98 1013.84 1013.68 1013.51 1013.34 1013.20 1013.09 1013.00 1012.94 1012.90 1012.87 1012.84 1012.81 1012.77 1012.75 1012.73 1012.73 1012.75 1012.79 1012.84 1012.89 1012.94 1012.96 1012.97 1012.96 1012.95 1012.93 1012.91 1012.90
1014.28 1014.32 1014.33 1014.30 1014.25 1014.20 1014.15 1014.13 1014.13 1014.14 1014.16 1014.15 1014.10 1014.02 1013.88 1013.70 1013.49 1013.28 1013.08 1012.90 1012.76 1012.66 1012.58 1012.53 1012.49 1012.45 1012.42 1012.39 1012.37 1012.36 1012.38 1012.43 1012.50 1012.57 1012.65 1012.72 1012.76 1012.79 1012.80 1012.79 1012.77 1012.75 1012.74
1014.27 1014.23 1014.16 1014.07 1013.99 1013.92 1013.90 1013.90 1013.94 1013.97 1014.00 1013.99 1013.93 1013.81 1013.62 1013.40 1013.14 1012.89 1012.64 1012.44 1012.27 1012.15 1012.06 1011.99 1011.94 1011.89 1011.85 1011.82 1011.80 1011.80 1011.84 1011.89 1011.98 1012.07 1012.17 1012.26 1012.32 1012.36 1012.38 1012.38 1012.36 1012.35 1012.33
1014.26 1014.15 1014.02 1013.88 1013.77 1013.70 1013.66 1013.67 1013.70 1013.74 1013.75 1013.71 1013.61 1013.44 1013.20 1012.91 1012.60 1012.30 1012.02 1011.79 1011.60 1011.46 1011.36 1011.29 1011.23 1011.18 1011.13 1011.09 1011.07 1011.07 1011.10 1011.16 1011.26 1011.36 1011.48 1011.58 1011.67 1011.72 1011.76 1011.76 1011.76 1011.74 1011.73
1014.23 1014.08 1013.91 1013.74 1013.60 1013.50 1013.46 1013.45 1013.46 1013.46 1013.43 1013.34 1013.17 1012.93 1012.63 1012.28 1011.93 1011.58 1011.28 1011.02 1010.82 1010.67 1010.57 1010.49 1010.42 1010.37 1010.31 1010.26 1010.24 1010.23 1010.26 1010.33 1010.42 1010.54 1010.67 1010.79 1010.90 1010.97 1011.02 1011.04 1011.04 1011.03 1011.03
1014.18 1014.01 1013.82 1013.64 1013.48 1013.37 1013.30 1013.26 1013.23 1013.18 1013.08 1012.92 1012.68 1012.37 1012.00 1011.61 1011.21 1010.83 1010.50 1010.23 1010.03 1009.88 1009.77 1009.69 1009.62 1009.56 1009.49 1009.44 1009.40 1009.40 1009.42 1009.49 1009.59 1009.72 1009.85 1009.99 1010.11 1010.20 1010.26 1010.30 1010.31 1010.31 1010.32
1014.12 1013.95 1013.76 1013.57 1013.41 1013.28 1013.18 1013.11 1013.02 1012.91 1012.74 1012.51 1012.20 1011.83 1011.41 1010.97 1010.54 1010.15 1009.81 1009.54 1009.33 1009.18 1009.06 1008.98 1008.90 1008.83 1008.76 1008.71 1008.66 1008.66 1008.68 1008.75 1008.85 1008.98 1009.13 1009.28 1009.41 1009.51 1009.58 1009.62 1009.64 1009.64 1009.65
1014.07 1013.92 1013.74 1013.56 1013.39 1013.25 1013.12 1013.00 1012.86 1012.69 1012.46 1012.16 1011.80 1011.38 1010.92 1010.46 1010.01 1009.61 1009.27 1009.00 1008.78 1008.63 1008.51 1008.42 1008.34 1008.26 1008.18 1008.12 1008.08 1008.07 1008.10 1008.17 1008.28 1008.42 1008.58 1008.72 1008.86 1008.96 1009.03 1009.07 1009.08 1009.08 1009.08
1014.07 1013.93 1013.76 1013.59 1013.42 1013.26 1013.10 1012.93 1012.74 1012.51 1012.22 1011.87 1011.47 1011.02 1010.55 1010.08 1009.64 1009.24 1008.90 1008.62 1008.41 1008.25 1008.12 1008.01 1007.92 1007.83 1007.75 1007.69 1007.65 1007.65 1007.69 1007.78 1007.90 1008.04 1008.20 1008.34 1008.47 1008.56 1008.62 1008.65 1008.65 1008.63 1008.61
1014.13 1013.99 1013.83 1013.65 1013.46 1013.28 1013.08 1012.87 1012.63 1012.34 1012.01 1011.63 1011.20 1010.74 1010.27 1009.81 1009.37 1008.99 1008.66 1008.38 1008.16 1007.98 1007.83 1007.71 1007.60 1007.50 1007.42 1007.36 1007.34 1007.36 1007.42 1007.52 1007.66 1007.81 1007.97 1008.11 1008.22 1008.30 1008.34 1008.35 1008.33 1008.29 1008.25
1014.22 1014.08 1013.91 1013.72 1013.51 1013.28 1013.04 1012.79 1012.49 1012.16 1011.80 1011.39 1010.95 1010.49 1010.03 1009.58 1009.17 1008.79 1008.46 1008.18 1007.95 1007.75 1007.58 1007.43 1007.30 1007.20 1007.13 1007.09 1007.09 1007.14 1007.22 1007.35 1007.51 1007.67 1007.83 1007.97 1008.07 1008.13 1008.15 1008.13 1008.09 1008.03 1007.97
1014.33 1014.17 1013.97 1013.75 1013.51 1013.24 1012.96 1012.65 1012.31 1011.94 1011.54 1011.12 1010.68 1010.23 1009.79 1009.36 1008.96 1008.60 1008.27 1007.98 1007.72 1007.50 1007.30 1007.14 1007.00 1006.89 1006.82 1006.80 1006.83 1006.92 1007.04 1007.21 1007.39 1007.57 1007.74 1007.87 1007.96 1008.00 1008.00 1007.96 1007.90 1007.84 1007.77
Thickness
5814 5814 5812 5810 5806 5803 5800 5797 5794 5791 5788 5784 5781 5778 5776 5776 5776 5777 5777 5776 5775 5774 5773 5771 5770 5769 5767 5766 5766 5764 5762 5761 5761 5757 5754 5756 5758 5758 5759 5758 5758 5757 5756
5810 5811 5810 5808 5804 5801 5798 5796 5793 5790 5787 5785 5782 5780 5777 5775 5775 5775 5775 5774 5773 5773 5771 5769 5767 5766 5765 5763 5763 5761 5758 5757 5758 5752 5747 5743 5746 5752 5756 5755 5755 5754 5754
5811 5809 5807 5805 5803 5800 5798 5796 5792 5788 5786 5784 5781 5778 5775 5773 5771 5771 5771 5771 5771 5770 5769 5767 5765 5764 5762 5760 5759 5758 5756 5752 5753 5753 5747 5738 5735 5741 5748 5751 5751 5751 5750
5813 5810 5807 5805 5803 5801 5799 5795 5791 5788 5785 5782 5778 5774 5769 5766 5766 5767 5768 5768 5768 5767 5766 5765 5763 5761 5760 5758 5757 5757 5755 5752 5748 5749 5749 5746 5743 5737 5736 5743 5746 5748 5748
5813 5810 5809 5807 5805 5802 5798 5794 5790 5787 5784 5781 5778 5773 5769 5767 5766 5766 5765 5764 5764 5764 5763 5762 5760 5758 5757 5756 5755 5754 5752 5750 5747 5744 5744 5743 5741 5740 5734 5732 5737 5741 5744
5813 5810 5808 5806 5803 5800 5796 5792 5787 5784 5782 5779 5776 5773 5769 5766 5763 5761 5760 5759 5759 5759 5759 5758 5757 5755 5754 5752 5751 5750 5749 5747 5745 5743 5741 5738 5735 5733 5732 5729 5730 5732 5737
5810 5806 5802 5800 5799 5796 5793 5790 5785 5781 5779 5777 5774 5772 5768 5765 5762 5760 5758 5756 5755 5754 5754 5754 5753 5752 5750 5749 5748 5746 5744 5743 5741 5739 5737 5736 5734 5733 5731 5727 5725 5726 5730
5807 5804 5802 5799 5796 5794 5791 5787 5783 5779 5777 5774 5772 5770 5767 5764 5761 5760 5758 5756 5754 5753 5753 5751 5749 5748 5747 5745 5743 5741 5740 5739 5737 5736 5734 5732 5731 5730 5728 5724 5721 5718 5719
5803 5802 5800 5797 5794 5791 5788 5786 5782 5778 5776 5773 5770 5767 5765 5763 5761 5759 5758 5756 5754 5752 5750 5747 5745 5743 5742 5740 5738 5735 5734 5733 5731 5730 5728 5727 5725 5724 5723 5722 5719 5714 5709
5799 5798 5796 5794 5791 5789 5786 5784 5780 5777 5775 5772 5770 5767 5764 5762 5759 5757 5754 5753 5751 5749 5746 5743 5740 5738 5736 5734 5732 5730 5729 5727 5725 5723 5721 5720 5719 5718 5717 5715 5714 5712 5708
5795 5793 5792 5791 5789 5785 5782 5778 5775 5773 5770 5769 5767 5764 5762 5759 5757 5754 5751 5749 5746 5743 5741 5738 5735 5733 5731 5729 5726 5724 5722 5720 5718 5716 5714 5712 5712 5710 5709 5708 5707 5705 5703
5792 5791 5788 5787 5784 5780 5777 5774 5772 5769 5767 5766 5763 5761 5758 5755 5752 5750 5748 5745 5741 5739 5736 5734 5730 5728 5725 5723 5720 5718 5716 5713 5711 5709 5707 5705 5705 5702 5701 5700 5699 5698 5697
5787 5785 5783 5781 5778 5776 5773 5771 5768 5766 5764 5761 5758 5755 5753 5750 5747 5744 5742 5740 5736 5734 5731 5728 5725 5722 5720 5717 5715 5713 5710 5708 5706 5703 5701 5699 5697 5695 5694 5693 5691 5690 5691
5781 5777 5775 5774 5773 5771 5769 5767 5764 5761 5759 5756 5752 5749 5747 5745 5743 5740 5737 5734 5731 5728 5725 5722 5720 5717 5714 5712 5710 5707 5705 5702 5700 5698 5696 5694 5692 5690 5688 5687 5684 5683 5681
5775 5773 5771 5769 5767 5765 5763 5762 5758 5756 5753 5749 5746 5743 5741 5740 5737 5734 5732 5729 5726 5723 5720 5717 5714 5711 5708 5706 5703 5701 5699 5695 5693 5692 5690 5689 5688 5686 5684 5682 5678 5676 5674
5772 5771 5768 5765 5762 5760 5758 5756 5753 5750 5747 5743 5739 5737 5735 5733 5730 5728 5725 5722 5720 5717 5714 5710 5707 5704 5703 5701 5698 5695 5692 5690 5687 5685 5684 5683 5682 5680 5678 5676 5674 5671 5668
5769 5767 5764 5761 5759 5756 5754 5750 5748 5745 5741 5736 5733 5730 5728 5725 5723 5722 5718 5715 5712 5709 5706 5703 5700 5697 5695 5694 5692 5689 5686 5683 5681 5678 5676 5676 5675 5672 5670 5668 5667 5665 5663
5767 5764 5760 5756 5754 5752 5749 5746 5742 5738 5734 5730 5726 5724 5721 5718 5715 5712 5709 5707 5704 5701 5698 5695 5693 5691 5689 5688 5685 5683 5679 5677 5675 5672 5670 5667 5665 5665 5662 5659 5657 5656 5656
5762 5760 5757 5753 5749 5745 5742 5739 5734 5730 5726 5722 5719 5717 5714 5711 5707 5704 5702 5700 5697 5694 5691 5689 5687 5684 5682 5681 5679 5676 5672 5669 5667 5666 5664 5660 5658 5657 5655 5651 5649 5648 5649
5756 5753 5750 5746 5741 5738 5736 5730 5726 5722 5719 5716 5714 5712 5709 5704 5701 5697 5695 5693 5690 5688 5685 5682 5680 5678 5675 5673 5671 5668 5664 5661 5659 5657 5655 5654 5652 5650 5647 5644 5642 5640 5640
5746 5745 5742 5737 5733 5731 5728 5722 5719 5716 5714 5712 5708 5705 5702 5698 5694 5691 5688 5686 5683 5680 5678 5675 5673 5670 5668 5666 5664 5661 5656 5654 5651 5649 5647 5646 5645 5643 5641 5638 5636 5634 5633
5737 5736 5731 5727 5725 5723 5720 5715 5711 5711 5708 5704 5700 5696 5694 5692 5689 5684 5681 5678 5674 5671 5668 5665 5663 5662 5660 5658 5656 5653 5650 5647 5644 5641 5640 5639 5638 5636 5634 5632 5631 5629 5628
5729 5727 5723 5717 5715 5714 5712 5706 5704 5703 5699 5694 5690 5687 5685 5683 5680 5676 5672 5669 5666 5662 5658 5655 5652 5651 5650 5648 5647 5645 5643 5640 5637 5635 5633 5632 5630 5629 5627 5625 5624 5622 5619
5721 5718 5714 5709 5707 5706 5704 5701 5698 5696 5691 5686 5681 5679 5676 5673 5671 5668 5665 5661 5657 5653 5650 5646 5643 5641 5639 5638 5637 5636 5634 5632 5629 5626 5625 5624 5622 5620 5618 5616 5614 5612 5610
5712 5710 5706 5702 5700 5699 5696 5694 5691 5688 5682 5678 5674 5670 5667 5664 5661 5658 5656 5653 5651 5648 5644 5640 5637 5633 5631 5631 5629 5626 5625 5623 5621 5618 5615 5614 5611 5609 5607 5605 5604 5603 5602
5704 5701 5699 5696 5693 5691 5688 5685 5683 5680 5675 5671 5667 5663 5660 5656 5652 5650 5647 5646 5644 5643 5641 5637 5633 5630 5628 5625 5623 5621 5619 5617 5614 5610 5606 5604 5602 5599 5598 5596 5595 5595 5594